• In Uzbekistan
  • List of Countries
  • For 7 days
  • Water Temperature
  • Satellite Maps
  • Weather Map
  • Weather Widgets
  • user-avatar
    Login

    Hourly Weather Balarampur

    Today, 11 December, Monday

    Time Temperature Precipitation Wind Pressure Humidity
    00:00 +22°C° 0 mm 1 mps 737 mmHg 86%
    01:00 +22°C° 0 mm 1 mps 737 mmHg 86%
    02:00 +21°C° 0 mm 1 mps 737 mmHg 87%
    03:00 +21°C° 0 mm 1 mps 737 mmHg 87%
    04:00 +21°C° 0 mm 1 mps 737 mmHg 87%
    05:00 +21°C° 0 mm 1 mps 737 mmHg 87%
    06:00 +20°C° 0 mm 1 mps 737 mmHg 85%
    07:00 +20°C° 0 mm 2 mps 737 mmHg 79%
    08:00 +23°C° 0 mm 2 mps 738 mmHg 72%
    09:00 +24°C° 0 mm 2 mps 738 mmHg 66%
    10:00 +26°C° 0 mm 2 mps 738 mmHg 60%
    11:00 +27°C° 0 mm 2 mps 738 mmHg 54%
    12:00 +29°C° 0 mm 2 mps 738 mmHg 48%
    13:00 +30°C° 0 mm 2 mps 737 mmHg 46%
    14:00 +30°C° 0 mm 2 mps 737 mmHg 44%
    15:00 +30°C° 0 mm 2 mps 736 mmHg 42%
    16:00 +29°C° 0 mm 1 mps 736 mmHg 45%
    17:00 +28°C° 0 mm 1 mps 736 mmHg 48%
    18:00 +27°C° 0 mm 1 mps 736 mmHg 51%
    19:00 +26°C° 0 mm 1 mps 737 mmHg 53%
    20:00 +25°C° 0 mm 1 mps 737 mmHg 56%
    21:00 +25°C° 0 mm 1 mps 738 mmHg 58%
    22:00 +24°C° 0 mm 1 mps 738 mmHg 61%
    23:00 +24°C° 0 mm 1 mps 738 mmHg 63%

    Tomorrow, 12 December, Tuesday

    Time Temperature Precipitation Wind Pressure Humidity
    00:00 +23°C° 0 mm 1 mps 738 mmHg 65%
    01:00 +23°C° 0 mm 1 mps 737 mmHg 67%
    02:00 +22°C° 0 mm 1 mps 737 mmHg 68%
    03:00 +22°C° 0 mm 1 mps 737 mmHg 70%
    04:00 +21°C° 0 mm 1 mps 737 mmHg 72%
    05:00 +21°C° 0 mm 1 mps 737 mmHg 73%
    06:00 +21°C° 0 mm 1 mps 737 mmHg 74%
    07:00 +22°C° 0 mm 1 mps 738 mmHg 69%
    08:00 +23°C° 0 mm 1 mps 738 mmHg 64%
    09:00 +25°C° 0 mm 1 mps 739 mmHg 59%
    10:00 +27°C° 0 mm 1 mps 739 mmHg 53%
    11:00 +28°C° 0 mm 1 mps 739 mmHg 48%
    12:00 +30°C° 0 mm 1 mps 739 mmHg 42%
    13:00 +30°C° 0 mm 1 mps 738 mmHg 39%
    14:00 +31°C° 0 mm 1 mps 737 mmHg 35%
    15:00 +31°C° 0 mm 2 mps 736 mmHg 32%
    16:00 +30°C° 0 mm 1 mps 737 mmHg 34%
    17:00 +28°C° 0 mm 1 mps 737 mmHg 36%
    18:00 +25°C° 0 mm 0 mps 737 mmHg 38%
    19:00 +26°C° 0 mm 1 mps 737 mmHg 40%
    20:00 +26°C° 0 mm 1 mps 738 mmHg 41%
    21:00 +25°C° 0 mm 1 mps 738 mmHg 43%
    22:00 +24°C° 0 mm 1 mps 738 mmHg 44%
    23:00 +24°C° 0 mm 1 mps 738 mmHg 45%

    Day after tomorrow, 13 December, Wednesday

    Time Temperature Precipitation Wind Pressure Humidity
    00:00 +23°C° 0 mm 1 mps 738 mmHg 46%
    01:00 +23°C° 0 mm 1 mps 738 mmHg 47%
    02:00 +22°C° 0 mm 1 mps 737 mmHg 48%
    03:00 +22°C° 0 mm 1 mps 737 mmHg 49%
    04:00 +21°C° 0 mm 1 mps 737 mmHg 49%
    05:00 +21°C° 0 mm 1 mps 737 mmHg 50%
    06:00 +20°C° 0 mm 1 mps 737 mmHg 51%
    07:00 +22°C° 0 mm 1 mps 738 mmHg 47%
    08:00 +24°C° 0 mm 1 mps 739 mmHg 44%
    09:00 +25°C° 0 mm 1 mps 739 mmHg 40%
    10:00 +27°C° 0 mm 1 mps 739 mmHg 36%
    11:00 +29°C° 0 mm 1 mps 739 mmHg 31%
    12:00 +31°C° 0 mm 2 mps 739 mmHg 27%
    13:00 +31°C° 0 mm 2 mps 738 mmHg 25%
    14:00 +31°C° 0 mm 2 mps 737 mmHg 24%
    15:00 +32°C° 0 mm 2 mps 737 mmHg 23%
    16:00 +30°C° 0 mm 2 mps 737 mmHg 27%
    17:00 +28°C° 0 mm 2 mps 737 mmHg 30%
    18:00 +27°C° 0 mm 1 mps 737 mmHg 33%
    19:00 +26°C° 0 mm 1 mps 737 mmHg 35%
    20:00 +25°C° 0 mm 1 mps 738 mmHg 38%
    21:00 +24°C° 0 mm 1 mps 739 mmHg 40%
    22:00 +24°C° 0 mm 1 mps 738 mmHg 43%
    23:00 +23°C° 0 mm 1 mps 738 mmHg 45%

    14 December, Thursday

    Time Temperature Precipitation Wind Pressure Humidity
    00:00 +23°C° 0 mm 1 mps 738 mmHg 47%
    01:00 +22°C° 0 mm 1 mps 738 mmHg 48%
    02:00 +22°C° 0 mm 1 mps 738 mmHg 49%
    03:00 +21°C° 0 mm 1 mps 737 mmHg 50%
    04:00 +21°C° 0 mm 1 mps 738 mmHg 51%
    05:00 +21°C° 0 mm 1 mps 738 mmHg 52%
    06:00 +21°C° 0 mm 1 mps 738 mmHg 53%
    07:00 +22°C° 0 mm 1 mps 739 mmHg 49%
    08:00 +24°C° 0 mm 1 mps 739 mmHg 46%
    09:00 +25°C° 0 mm 1 mps 740 mmHg 42%
    10:00 +27°C° 0 mm 1 mps 740 mmHg 38%
    11:00 +29°C° 0 mm 1 mps 740 mmHg 34%
    12:00 +30°C° 0 mm 1 mps 740 mmHg 30%
    13:00 +31°C° 0 mm 2 mps 739 mmHg 29%
    14:00 +31°C° 0 mm 2 mps 738 mmHg 27%
    15:00 +32°C° 0 mm 2 mps 737 mmHg 26%
    16:00 +30°C° 0 mm 2 mps 738 mmHg 29%
    17:00 +29°C° 0 mm 2 mps 738 mmHg 31%
    18:00 +27°C° 0 mm 2 mps 738 mmHg 34%
    19:00 +26°C° 0 mm 2 mps 738 mmHg 37%
    20:00 +25°C° 0 mm 2 mps 739 mmHg 39%
    21:00 +25°C° 0 mm 2 mps 739 mmHg 42%
    22:00 +24°C° 0 mm 2 mps 739 mmHg 44%
    23:00 +23°C° 0 mm 2 mps 739 mmHg 46%

    15 December, Friday

    Time Temperature Precipitation Wind Pressure Humidity
    00:00 +23°C° 0 mm 1 mps 739 mmHg 48%
    01:00 +22°C° 0 mm 1 mps 738 mmHg 49%
    02:00 +22°C° 0 mm 1 mps 738 mmHg 51%
    03:00 +22°C° 0 mm 1 mps 738 mmHg 52%
    04:00 +21°C° 0 mm 1 mps 738 mmHg 53%
    05:00 +21°C° 0 mm 1 mps 738 mmHg 53%
    06:00 +21°C° 0 mm 1 mps 738 mmHg 54%
    07:00 +22°C° 0 mm 1 mps 739 mmHg 51%
    08:00 +23°C° 0 mm 2 mps 740 mmHg 47%
    09:00 +25°C° 0 mm 2 mps 740 mmHg 44%
    10:00 +27°C° 0 mm 2 mps 740 mmHg 39%
    11:00 +29°C° 0 mm 3 mps 740 mmHg 34%
    12:00 +32°C° 0 mm 4 mps 740 mmHg 29%
    13:00 +32°C° 0 mm 4 mps 739 mmHg 27%
    14:00 +32°C° 0 mm 5 mps 738 mmHg 25%
    15:00 +33°C° 0 mm 5 mps 738 mmHg 23%
    16:00 +30°C° 0 mm 4 mps 738 mmHg 27%
    17:00 +28°C° 0 mm 4 mps 738 mmHg 31%
    18:00 +26°C° 0 mm 3 mps 739 mmHg 34%
    19:00 +25°C° 0 mm 3 mps 739 mmHg 37%
    20:00 +25°C° 0 mm 2 mps 740 mmHg 40%
    21:00 +24°C° 0 mm 2 mps 740 mmHg 43%
    22:00 +23°C° 0 mm 2 mps 740 mmHg 44%
    23:00 +23°C° 0 mm 2 mps 740 mmHg 46%

    16 December, Saturday

    Time Temperature Precipitation Wind Pressure Humidity
    00:00 +21°C° 0 mm 2 mps 740 mmHg 47%
    01:00 +21°C° 0 mm 2 mps 739 mmHg 48%
    02:00 +20°C° 0 mm 2 mps 739 mmHg 48%
    03:00 +20°C° 0 mm 2 mps 739 mmHg 49%
    04:00 +20°C° 0 mm 2 mps 739 mmHg 50%
    05:00 +19°C° 0 mm 2 mps 739 mmHg 50%
    06:00 +19°C° 0 mm 2 mps 739 mmHg 51%
    07:00 +20°C° 0 mm 2 mps 740 mmHg 48%
    08:00 +23°C° 0 mm 2 mps 740 mmHg 44%
    09:00 +24°C° 0 mm 3 mps 741 mmHg 41%
    10:00 +26°C° 0 mm 3 mps 741 mmHg 37%
    11:00 +28°C° 0 mm 4 mps 741 mmHg 33%
    12:00 +30°C° 0 mm 5 mps 740 mmHg 30%
    13:00 +30°C° 0 mm 5 mps 740 mmHg 29%
    14:00 +30°C° 0 mm 5 mps 739 mmHg 28%
    15:00 +32°C° 0 mm 6 mps 738 mmHg 27%
    16:00 +29°C° 0 mm 5 mps 739 mmHg 31%
    17:00 +27°C° 0 mm 4 mps 739 mmHg 35%
    18:00 +25°C° 0 mm 3 mps 739 mmHg 39%
    19:00 +24°C° 0 mm 3 mps 739 mmHg 41%
    20:00 +24°C° 0 mm 2 mps 740 mmHg 43%
    21:00 +23°C° 0 mm 2 mps 740 mmHg 46%
    22:00 +21°C° 0 mm 2 mps 740 mmHg 47%
    23:00 +20°C° 0 mm 2 mps 740 mmHg 48%
    Show more